Location: Cactus School
(34.5700°N, 118.0931°W)
Time: 03:32:02
(UTC-07:00)

Courier 1B - Pass Details

Date: 25 April 2024
Orbit: 962 x 1208 km, 28.3° (Epoch: 23 May)

Event Time Altitude Azimuth Distance (km) Brightness Sun altitude
Exits shadow 02:13:38 14° 104° (ESE) 2,667 9.8 -38.1°
Drops below altitude 10° 02:14:31 10° 102° (ESE) 2,954 10.1 -38.0°
Sets 02:17:16 0° 97° (E) 3,874 10.8 -37.8°
